Location: Brest
(52.1000°N, 23.7000°E)
Time: 08:23:22
(UTC+03:00)

GENESIS II - Visible Passes

Search period start: 27 May 2018 00:00
Search period end: 06 June 2018 00:00
Orbit: 506 x 526 km, 64.5° (Epoch: 26 May)

Date Brightness Start Highest point End Pass type
(mag) Time Alt. Az. Time Alt. Az. Time Alt. Az.
29 May 6.3 04:26:57 10° SSE 04:29:52 20° ESE 04:32:49 10° ENE visible
30 May 6.2 04:11:18 10° SSE 04:14:15 21° ESE 04:17:14 10° ENE visible
31 May 6.1 03:55:38 10° SSE 03:58:38 21° ESE 04:01:39 10° ENE visible
01 Jun 6.1 03:39:58 10° S 03:43:00 22° ESE 03:46:03 10° ENE visible
02 Jun 6.0 03:24:22 10° S 03:27:23 22° ESE 03:30:28 10° ENE visible
03 Jun 5.9 03:09:10 12° SSE 03:11:45 23° ESE 03:14:52 10° ENE visible
04 Jun 5.8 02:53:54 15° SSE 02:56:08 23° ESE 02:59:18 10° ENE visible
05 Jun 5.8 02:38:35 17° SSE 02:40:30 24° ESE 02:43:42 10° ENE visible
05 Jun 4.7 04:14:06 10° WSW 04:17:57 55° NW 04:21:50 10° NE visible
